Weather Roundup
Issued by NWS Springfield, MO

Home | Current Version | Previous Version | Text Only | Print | Product List | Glossary On
Versions: 1 2 3 4 5 6 7 8 9 10 11 12 13 14 15 16 17 18 19 20 21 22 23 24 25 26 27 28 29 30 31 32 33 34 35 36 37 38 39 40 41 42 43 44 45 46 47 48 49 50
000
NZUS99 KSGF 140207
HRRSGF

HOURLY WEATHER
NATIONAL WEATHER SERVICE SPRINGFIELD MO
800 PM CST WED DEC 13 2017

......SGF CWA......

CITY           SKY/WX    TMP DP  RH WIND       PRES   REMARKS
SPRINGFIELD    CLEAR     45  27  49 NW7       29.83R
JOPLIN         CLEAR     45  27  49 NW8       29.88R
WEST PLAINS    CLEAR     46  25  43 W6        29.80R
ROLLA          CLEAR     47  27  45 NW12      29.77R
OSAGE BEACH    CLEAR     50  27  40 NW8       29.82R
BRANSON        CLEAR     48  25  40 W9        29.84R

......SURROUNDING SGF CWA......

CITY           SKY/WX    TMP DP  RH WIND       PRES   REMARKS
CHANUTE        CLEAR     49  25  39 N13       29.89R
PARSONS        CLEAR     37  25  61 N5        29.90R WCI  33
COFFEYVILLE    CLEAR     47  25  42 N9        29.89R
EMPORIA        CLEAR     42  24  49 NW7       29.92R
GROVE OK       CLEAR     45  32  61 CALM      29.89R
ROGERS AR      CLEAR     47  26  44 W5        29.87R
SILOAM SPRINGS CLEAR     43  25  49 SW3       29.88R
HARRISON AR    CLEAR     50  25  37 W8        29.84R
NEAR YELLVILLE CLEAR     50  26  39 W8        29.82

......KANSAS AND MISSOURI......

CITY           SKY/WX    TMP DP  RH WIND       PRES   REMARKS
KANSAS CTY INT CLEAR     43  29  57 N20G26    29.89R
DOWNTOWN KC    CLEAR     47  29  49 N15       29.89R
COLUMBIA       CLEAR     45  29  53 NW18      29.80R
SEDALIA        CLEAR     47  30  51 NW13G23   29.86R
ST JOSEPH      CLEAR     39  29  67 N12       29.92R WCI  32
ST LOUIS       CLEAR     43  31  62 NW17G26   29.75R
SPIRIT OF STL  CLEAR     46  32  58 NW20G33   29.76R
KIRKSVILLE     CLOUDY    39  29  67 NW24G37   29.84R WCI  28
WICHITA        PTCLDY    46  24  42 N7        29.94R
TOPEKA         CLEAR     45  28  51 NW9       29.91R
OLATHE         CLEAR     46  28  49 N10       29.88R

......TENNESSEE......

CITY           SKY/WX    TMP DP  RH WIND       PRES   REMARKS
MEMPHIS        CLEAR     50  28  42 SW9       29.82R
NASHVILLE      CLEAR     46  21  37 SW10      29.75F

......ARKANSAS.......

CITY           SKY/WX    TMP DP  RH WIND       PRES   REMARKS
FAYETTEVILLE   CLEAR     34  26  72 CALM      29.88R
FT SMITH       CLEAR     43  28  55 SW6       29.88R
LITTLE ROCK    CLEAR     52  28  39 W7        29.86R

......OKLAHOMA.......

CITY           SKY/WX    TMP DP  RH WIND       PRES   REMARKS
TULSA          CLEAR     48  24  39 NW3       29.89R
PONCA CITY     CLEAR     42  23  46 N3        29.91R
MCALESTER      PTCLDY    41  27  57 CALM      29.89R
OKLAHOMA CITY  PTCLDY    50  20  30 NW5       29.91S

......IOWA............

CITY           SKY/WX    TMP DP  RH WIND       PRES   REMARKS
DES MOINES     CLOUDY    36  20  52 NW21G38   29.87R WCI  25
QUAD CITIES    CLOUDY    32  20  61 NW18G26   29.74R WCI  20

......ILLINOIS........

CITY           SKY/WX    TMP DP  RH WIND       PRES   REMARKS
QUINCY         CLOUDY    38  25  59 NW22G39   29.78R WCI  27
CHICAGO        FLURRIES  28  18  66 NW20G30   29.57R WCI  15




USA.gov is the U.S. government's official web portal to all federal, state and local government web resources and services.